Volver al catálogo

USA 359

ActivoMilitarVLEO
NORAD 59819·PAYLOAD·🇺🇸 United States

Lanzado May 22, 2024 desde Vandenberg Space Force Base

Loading…

Próximos Pases (próximas 24 horas)

TLE

ObsoletoSource: Mike McCants

Época: Aug 25, 2026, 20:35 UTC

1 59819U 24096F   26237.85828323 0.00000000  00000-0  00000-0 0    05
2 59819  70.0163 152.0535 0001850 244.1291 115.8709 14.96713376    07

Sigue USA 359 en tiempo real con AllMySat

Download on the App Store